Weather History for Wautoma, WI

Change the Weather History Date:

Friday, January 18, 2013

  Actual Average (KPCZ) Record (KPCZ)
Temperature  
Mean Temperature 22 °F -  
Max Temperature 41 °F 24 °F 50 °F (1986)
Min Temperature 2 °F 7 °F -25 °F (1967)
Degree Days  
Heating Degree Days 44    
Moisture  
Dew Point 17 °F    
Average Humidity 83    
Maximum Humidity 100    
Minimum Humidity 60    
Precipitation  
Precipitation 0.02 in - - ()
Sea Level Pressure  
Sea Level Pressure 30.09 in    
Wind  
Wind Speed 3 mph (SSW)    
Max Wind Speed 18 mph    
Max Gust Speed 24 mph    
Visibility 7 miles    
Events Snow    
Averages and records for this station are not official NWS values.
T = Trace of Precipitation, MM = Missing Value Source: NWS Daily Summary

Daily Weather History Graph

Daily Weather History Graph

Search for Another Location

Airport:

Trip Planner

Search our weather history database for the weather conditions in past years. The results will help you decide how hot, cold, wet, or windy it might be!

Date:

Astronomy

Jan. 18, 2013 Rise Set
Actual Time 7:26 AM CST 4:49 PM CST
Civil Twilight 6:55 AM CST 5:20 PM CST
Nautical Twilight 6:19 AM CST 5:56 PM CST
Astronomical Twilight 5:45 AM CST 6:30 PM CST
Moon 10:47 AM CST (1/18) No Moon Set
Length of Visible Light 10h 25m
Length of Day
9h 22m
Waxing Crescent, 47% of the Moon is Illuminated
Jan 18
Waxing Crescent
Jan 18
First Quarter
Jan 26
Full
Feb 3
Last Quarter
Feb 10
New

Hourly Weather History & Observations

Time (CST) Temp. Windchill Dew Point Humidity Pressure Visibility Wind Dir Wind Speed Gust Speed Precip Events Conditions
12:56 AM 2.1 °F - -0.9 °F 87% 30.42 in 10.0 mi Calm Calm - N/A   Clear
1:56 AM 5.0 °F - 3.0 °F 92% 30.43 in 10.0 mi Calm Calm - N/A   Mostly Cloudy
2:56 AM 7.2 °F - 4.1 °F 87% 30.41 in 10.0 mi Calm Calm - N/A   Overcast
3:56 AM 9.1 °F - 6.1 °F 87% 30.38 in 10.0 mi Calm Calm - N/A   Overcast
4:34 AM 10.4 °F - 6.8 °F 85% 30.32 in 6.0 mi Calm Calm - 0.00 in Snow Light Snow
4:45 AM 10.4 °F - 6.8 °F 85% 30.31 in 2.5 mi Calm Calm - 0.00 in Snow Light Snow
4:56 AM 10.0 °F - 8.1 °F 92% 30.34 in 1.8 mi Calm Calm - 0.00 in Snow Light Snow
5:24 AM 10.4 °F - 8.6 °F 92% 30.29 in 2.0 mi Calm Calm - 0.00 in Snow Light Snow
5:31 AM 10.4 °F - 8.6 °F 92% 30.28 in 1.5 mi Calm Calm - 0.00 in Snow Light Snow
5:40 AM 10.4 °F - 8.6 °F 92% 30.28 in 1.2 mi Calm Calm - 0.00 in Snow Light Snow
5:56 AM 10.4 °F - 8.6 °F 92% 30.27 in 1.5 mi Calm Calm - N/A Snow Light Snow
6:20 AM 10.4 °F - 10.4 °F 100% 30.25 in 2.0 mi Calm Calm - 0.00 in Snow Light Snow
6:44 AM 12.2 °F - 10.4 °F 92% 30.24 in 2.5 mi Calm Calm - 0.00 in Snow Light Snow
6:56 AM 12.0 °F 5.9 °F 11.1 °F 96% 30.27 in 1.8 mi SE 3.5 mph - 0.00 in Snow Light Snow
7:00 AM 12.2 °F - 10.4 °F 92% 30.22 in 2.0 mi Calm Calm - 0.00 in Snow Light Snow
7:19 AM 12.2 °F 2.9 °F 12.2 °F 100% 30.20 in 3.0 mi SE 5.8 mph - 0.00 in Snow Light Snow
7:39 AM 14.0 °F 3.9 °F 12.2 °F 93% 30.19 in 7.0 mi SE 6.9 mph - 0.00 in Snow Light Snow
7:56 AM 14.0 °F 2.0 °F 13.1 °F 96% 30.22 in 10.0 mi SSE 9.2 mph - 0.00 in   Mostly Cloudy
8:56 AM 16.2 °F 4.7 °F 13.1 °F 88% 30.16 in 10.0 mi SSE 9.2 mph - N/A   Unknown
9:56 AM 21.0 °F 10.6 °F 15.1 °F 78% 30.09 in 10.0 mi South 9.2 mph - N/A   Clear
10:56 AM 28.0 °F 18.1 °F 20.1 °F 72% 30.02 in 10.0 mi South 11.5 mph - 0.00 in   Overcast
11:56 AM 33.8 °F 24.8 °F 24.8 °F 70% 29.90 in 10.0 mi SSW 12.7 mph - N/A   Clear
12:56 PM 37.9 °F 28.2 °F 27.1 °F 65% 29.88 in 10.0 mi SW 18.4 mph - 0.02 in   Mostly Cloudy
1:56 PM 41.0 °F 33.1 °F 28.0 °F 60% 29.84 in 10.0 mi SSW 15.0 mph - N/A   Clear
2:56 PM 41.9 °F 34.3 °F 29.1 °F 61% 29.82 in 10.0 mi SW 15.0 mph 24.2 mph N/A   Clear
3:56 PM 41.9 °F 35.4 °F 29.1 °F 61% 29.81 in 10.0 mi SW 11.5 mph - N/A   Clear
4:56 PM 41.0 °F 36.4 °F 30.0 °F 65% 29.81 in 10.0 mi SSW 6.9 mph - N/A   Clear
5:56 PM 39.2 °F 33.6 °F 30.2 °F 70% 29.77 in 10.0 mi SSW 8.1 mph - N/A   Clear
6:56 PM 38.8 °F 33.8 °F 30.0 °F 71% 29.81 in 10.0 mi SSW 6.9 mph - N/A   Clear
7:56 PM 36.9 °F 30.7 °F 30.0 °F 76% 29.79 in 10.0 mi SSW 8.1 mph - N/A   Clear
8:56 PM 35.6 °F - 28.4 °F 75% 29.76 in 10.0 mi Calm Calm - N/A   Clear
9:56 PM 32.9 °F 27.5 °F 29.1 °F 86% 29.79 in 10.0 mi WSW 5.8 mph - N/A   Clear
10:56 PM 32.0 °F 26.4 °F 30.0 °F 92% 29.79 in 10.0 mi WSW 5.8 mph - N/A   Clear
11:56 PM 33.8 °F 28.6 °F 30.2 °F 87% 29.77 in 10.0 mi WSW 5.8 mph - N/A   Clear